Back to catalog

COSMOS 1652

GLONASS

AliveNavigationMEO
NORAD 15699·PAYLOAD·🇷🇺 Russia

Launched May 17, 1985 from Baikonur Cosmodrome

Loading…

Next Passes (next 24 hours)

TLE

FreshSource: Space-Track

Epoch: Sep 11, 2026, 00:11 UTC

1 15699U 85037C   26254.00774279  .00000011  00000-0  00000-0 0  9990
2 15699  64.9276  70.1941 0018512  28.0852   3.6753  2.13067316321492

Track COSMOS 1652 in real time with AllMySat

Download on the App Store